www.pogodaiklimat.ru

Погода и климат >> Архив погоды >> ОАЭ >> Ras Al Khaimah Int Airport


ПОГОДА в Ras Al Khaimah Int Airport

  • Прогноз погоды в Ras Al Khaimah Int Airport
  • Монитор погоды в Ras Al Khaimah Int Airport
  • Климат города

АРХИВ ПОГОДЫ в Ras Al Khaimah Int Airport

Время (UTC), дата Ветер
(напр.,м/с)
 
Видим.   Явления Облачность Т
(С)
Тd
(С)
f
(%)
Тe
(С)
Тes
(С)
Комфортность P
(гПа)
Po
(гПа)
Тmin
(С)
Tmax
(С)
R
(мм)
R24
(мм)
S
(см)
00 14.11 Ю 3 10 км ясно +21.9 +17.7 77 +26 +26 душно 1012.6 1013.0
03 14.11 Ю 3 10 км ясно +22.1 +17.9 77 +27 +27 душно 1013.5 1014.0
06 14.11 нст 1 10 км ясно +28.9 +19.8 58 +35 +43 очень
душно
1014.5 1015.0 +21.9
09 14.11 СЗ 4 10 км ясно +32.5 +10.3 26 +32 +40 жарко 1012.1 1012.0
12 14.11 СЗ 5 10 км 3/0
[Ci fib]
+29.9 +18.0 49 +34 +36 очень
душно
1011.4 1011.0
15 14.11 СЗ 3 10 км 5/0
[Ci fib]
+25.5 +18.9 67 +30 +30 душно 1012.6 1013.0
18 14.11 ЮЗ 1 10 км 4/0
[Ci fib]
+22.1 +16.3 70 +26 +26 душно 1013.1 1013.0 +33.1
21 14.11 З 1 10 км 3/0
[Ci fib]
+20.4 +15.1 72 +24 +24 комфорт 1013.5 1014.0
00 15.11 ЮВ 1 10 км 3/0
[Ci fib]
+19.1 +14.0 72 +21 +21 комфорт 1013.8 1014.0
03 15.11 Ю 2 10 км 4/0
[Ci fib]
+18.8 +13.7 72 +20 +20 1014.8 1015.0
09 15.11 ЮВ 5 10 км 4/0
[Ci fib]
+33.2 +16.7 37 +36 +41 очень
душно
1014.3 1014.0
12 15.11 ЮВ 6 10 км 5/0
[Ci fib]
+32.5 +14.1 33 +34 +35 очень
жарко
1013.8 1014.0
15 15.11 В 5 10 км 5/0
[Ci fib]
+29.5 +9.1 28 +29 +29 жарко 1015.1 1015.0
18 15.11 ЮВ 5 10 км 4/0
[Ci fib]
+28.3 +7.4 27 +28 +28 жарко 1015.8 1016.0
21 15.11 В 3 10 км 4/0
[Ci fib]
+25.1 +8.6 35 +26 +26 жарко 1015.1 1015.0
00 16.11 В 2 10 км 3/0
[Ci fib]
+20.6 +9.0 47 +23 +23 комфорт 1015.6 1016.0
03 16.11 Ю 4 10 км 5/0
[Ci fib]
+24.2 +8.1 36 +25 +25 комфорт 1017.0 1017.0
06 16.11 С 1 10 км 8/0 400 м
[Ci]
+30.7 +13.2 34 +32 +39 жарко 1017.8 1018.0 +19.1
09 16.11 С 6 10 км 6/0
[Ci]
+31.7 +14.3 35 +33 +37 жарко 1016.5 1017.0
12 16.11 С 7 10 км 6/0
[Ci]
+30.0 +15.4 41 +33 +33 душно 1016.2 1016.0
15 16.11 С 2 10 км 6/0
[Ci]
+27.2 +15.6 49 +30 +30 душно 1017.4 1017.0
18 16.11 нст 1 10 км 5/0
[Ci fib]
+23.1 +14.6 59 +27 +27 душно 1018.4 1018.0 +33.6
21 16.11 Ю 2 10 км 5/0
[Ci fib]
+21.8 +12.9 57 +24 +24 комфорт 1016.9 1017.0
00 17.11 ЮЗ 3 10 км 4/0
[Ci fib]
+22.2 +9.8 45 +24 +24 комфорт 1015.8 1016.0
03 17.11 З 3 10 км 4/0
[Ci fib]
+20.1 +10.6 54 +22 +22 комфорт 1017.5 1018.0
06 17.11 ЮЗ 1 10 км 6/3 1200 м
[Sc diur, vesp Ac trans]
+27.6 +17.4 54 +32 +36 очень
душно
1018.1 1018.0 +19.6
09 17.11 СЗ 4 10 км 6/3 1200 м
[Sc diur, vesp Ac trans]
+32.7 +13.9 32 +34 +38 очень
жарко
1015.2 1015.0
12 17.11 СЗ 5 10 км 5/3 1200 м
[Sc diur, vesp Ac trans]
+28.7 +20.2 60 +35 +36 очень
душно
1014.9 1015.0
15 17.11 штиль 0 10 км 6/4 1200 м
[Sc diur, vesp Ac trans]
+26.0 +20.8 73 +33 +33 очень
душно
1015.9 1016.0
18 17.11 ЮВ 1 10 км 6/0
[Ac trans Ci fib]
+24.9 +19.5 72 +30 +30 душно 1016.5 1017.0 +33.5
21 17.11 ЮВ 3 10 км 4/3 1000 м
[Sc Ac trans]
+25.1 +20.8 77 +31 +31 очень
душно
1015.3 1015.0
00 18.11 ЮЗ 2 10 км 4/3 1200 м
[Sc Ac trans]
+23.5 +20.1 81 +29 +29 душно 1014.8 1015.0
03 18.11 ЮЗ 2 8000 м пыль 5/3 1000 м
[St Ac lent]
+23.1 +20.2 84 +30 +30 очень
душно
1015.6 1016.0
06 18.11 ЮЗ 3 8000 м пыль 5/4 1050 м
[Sc Ci fib]
+28.6 +21.5 65 +36 +40 очень
душно
1016.6 1017.0 +22.8
09 18.11 З 4 10 км ясно +31.5 +13.7 34 +33 +40 жарко 1014.0 1014.0
12 18.11 З 6 10 км ясно +29.1 +17.7 50 +33 +34 очень
душно
1013.5 1014.0
15 18.11 З 3 10 км 5/4 1200 м
[Sc Ci fib]
+25.6 +17.3 60 +30 +30 душно 1014.7 1015.0
18 18.11 З 2 10 км 5/4 1200 м
[Sc Ac trans]
+25.4 +16.4 57 +29 +29 душно 1015.5 1016.0 +32.2
21 18.11 Ю 1 10 км 5/4 1200 м
[Sc Ac trans]
+23.1 +16.2 65 +28 +28 душно 1015.0 1015.0
00 19.11 Ю 3 10 км 5/4 1200 м
[Sc Ac trans]
+22.6 +16.4 68 +27 +27 душно 1014.9 1015.0
03 19.11 Ю 4 10 км 4/3 1200 м
[Sc Ci fib]
+21.8 +16.5 72 +26 +26 душно 1016.1 1016.0
06 19.11 Ю 3 10 км ясно +27.2 +17.1 54 +31 +37 душно 1017.2 1017.0 +21.7
09 19.11 СЗ 3 10 км 4/4 1200 м
[Sc diur, vesp]
+30.0 +18.2 49 +35 +40 очень
душно
1014.8 1015.0
12 19.11 З 5 10 км ясно +28.8 +18.3 53 +34 +35 очень
душно
1014.1 1014.0
15 19.11 З 1 10 км ясно +25.0 +18.9 69 +30 +30 душно 1015.5 1016.0
18 19.11 Ю 2 10 км ясно +21.8 +17.7 78 +26 +26 душно 1016.6 1017.0 +31.0
21 19.11 Ю 2 10 км ясно +20.4 +16.7 79 +24 +24 комфорт 1016.2 1016.0
00 20.11 нст 1 8000 м мгла 4/0
[Ac trans]
+18.6 +16.3 86 +21 +21 комфорт 1015.7 1016.0
03 20.11 Ю 2 5000 м мгла ясно +18.6 +16.8 89 +20 +20 1016.8 1017.0
06 20.11 ЮЗ 2 10 км 1/0
[Ci fib]
+26.9 +18.0 58 +31 +38 душно 1018.2 1018.0 +18.3
09 20.11 З 3 10 км 1/0
[Ci fib]
+29.7 +13.6 37 +31 +40 жарко 1016.0 1016.0
12 20.11 С 3 10 км 4/0
[Ac trans]
+28.4 +17.7 52 +33 +34 очень
душно
1014.8 1015.0
15 20.11 З 2 10 км 4/0
[Ac trans]
+25.3 +18.7 67 +30 +30 душно 1016.8 1017.0
18 20.11 Ю 2 10 км 4/0
[Ac trans]
+22.5 +16.8 70 +27 +27 душно 1017.7 1018.0 +31.5
21 20.11 Ю 2 10 км 4/4 1000 м
[Cb calv Ac cuf]
+22.3 +16.2 68 +26 +26 жарко 1017.0 1017.0

 

Местоположение метеостанции Ras Al Khaimah Int Airport (ОАЭ): широта 25.62 долгота 55.93 высота над уровнем моря 31 м.

В архиве по умолчанию представлена погода в Ras Al Khaimah Int Airport за последнюю неделю. Архивные данные за месяц целиком и за предыдущие месяцы, начиная с января 2011 года, Вы можете получить, выбрав интересующий диапазон дат из раскрывающегося списка и нажав кнопку "Ввод!".


*Определитесь, кто Вы:
робот инопланетянин человек

Внимание! Время в таблицах - всемирное. Для получения местного времени необходимо прибавить поправку, которая в Ras Al Khaimah Int Airport равна 4 ч.

Смотрите также архив погоды в соседних городах и на ближайших метеорологических станциях:

Погода в Diba (Оман) (32 км)
Погода в Sharjah (ОАЭ) (52 км)
Погода в Khasab Airport (Оман) (68 км)
Погода в Fujairah (ОАЭ) (70 км)
Погода в Khasab (Оман) (73 км)
Погода в Dubai (ОАЭ) (73 км)
Погода в Dubai Al Maktoum Int Airport (ОАЭ) (111 км)
Погода в Abu Musa Island (Иран) (113 км)
Погода в Sirri Island (Иран) (142 км)
Погода в Sohar Majis (Оман) (146 км)

Пояснения к столбцам:

Ветер - указаны скорость ветра в м/с - средняя за 10 мин, порывы в срок и между сроками (в фигурных скобках) и направление, откуда дует ветер: С - северный, СВ - северо-восточный, В - восточный, ЮВ - юго-восточный, Ю - южный, ЮЗ - юго-западный, З - западный, СЗ - северо-западный.
Видимость - горизонтальная дальность видимости в метрах или километрах. При видимости от 1 до 10 км при отсутствии осадков обычно наблюдается дымка, при ухудшении видимости до 1 км и менее - туман. В сухую погоду видимость может ухудшаться дымом, пылью или мглою.
Явления - указаны атмосферные явления, наблюдавшиеся в срок или в последний час перед сроком; фигурными скобками обозначены явления, наблюдавшиеся между сроками (за 1-3 часа до срока); квадратными скобками обозначены град или гололедные отложения с указанием их диаметра в мм.
Облачность - указаны через наклонную черту общая и нижняя облачность в баллах и высота нижней границы облаков в метрах; квадратными скобками обозначены формы облаков: Ci - перистые, Cs - перисто-слоистые, Cc - перисто-кучевые, Ac - высококучевые, As - высокослоистые, Sc - слоисто-кучевые, Ns - слоисто-дождевые, Cu - кучевые, Cb - кучево-дождевые. Подробнее классификацию облаков см. в Атласе облаков (PDF).
T - Температура воздуха - температура, измеренная на высоте 2 м над землей.
Td - Температура точки росы - температура, при понижении до которой содержащийся в воздухе водяной пар достигнет насыщения.
f - Относительная влажность воздуха - влажноcть воздуха, измеренная на высоте 2 м над землей.
Te - Эффективная температура - температура, которую ощущает одетый по сезону человек в тени. Характеристика душности погоды. При расчете учитывается влияние влажности воздуха и скорости ветра на теплоощущения человека.
Tes - Эффективная температура на солнце - температура, которую ощущает человек, с поправкой на солнечный нагрев. Характеристика знойности погоды. Зависит от высоты солнца над горизонтом, облачности и скорости ветра. Ночью, в пасмурную погоду, а также при ветре 12 м/с и более поправка равна нулю.
P - Атмосферное давление - приведенное к уровню моря атмосферное давление.
Po - Атмосферное давление - измеренное на уровне метеостанции атмосферное давление.
Tmin - Минимальная температура - минимум температуры воздуха на высоте 2 м над землей.
Tmax - Максимальная температура - максимум температуры воздуха на высоте 2 м над землей.
R - Количество осадков - Количество выпавших осадков за период времени, мм. При наведении курсора мыши на число - период времени, за который выпало указанное количество осадков.
R24 - Количество осадков - Количество выпавших осадков за 24 часа, мм.
S - Снежный покров - Высота снежного покрова, см. При наведении курсора мыши на число - состояние снежного покрова и степень покрытия местности в баллах.